Location: Cormont
(50.5693°N, 1.7416°E)
Time: 02:22:40
(UTC+00:00)

STARLINK-27 - Pass Details

Date: 21 October 2019
Orbit: 548 x 551 km, 53.0° (Epoch: 21 November)

Event Time Altitude Azimuth Distance (km) Brightness Sun altitude
Rises 17:54:04 0° 271° (W) 2,717 9.4 -10.9°
Reaches altitude 10° 17:56:19 10° 275° (W) 1,824 7.8 -11.3°
Maximum altitude 18:00:26 61° 356° (N) 627 3.9 -11.9°
Enters shadow 18:03:21 18° 74° (ENE) 1,371 5.0 -12.4°
